Location: Natural Bridges National Monument
(37.6093°N, 109.9767°W)
Time: 16:49:53
(UTC-06:00)

USA 32 - Visible Passes

Search period start: 25 July 2017 00:00
Search period end: 04 August 2017 00:00
Orbit: 779 x 781 km, 85.0° (Epoch: 19 June)

Date Brightness Start Highest point End Pass type
(mag) Time Alt. Az. Time Alt. Az. Time Alt. Az.
25 Jul 7.2 04:34:43 10° NE 04:36:06 11° ENE 04:37:30 10° E visible
26 Jul 4.8 05:39:39 10° N 05:44:51 59° E 05:49:59 10° SSE visible
27 Jul 5.9 05:07:14 10° NNE 05:11:55 32° E 05:16:34 10° SE visible
28 Jul 6.8 04:35:20 10° NNE 04:38:52 18° ENE 04:42:24 10° ESE visible
29 Jul 4.1 05:42:04 10° N 05:47:20 86° W 05:52:35 10° S visible
30 Jul 4.9 05:09:23 10° N 05:14:31 52° E 05:19:36 10° SSE visible
31 Jul 6.0 04:37:03 10° NNE 04:41:34 29° E 04:46:03 10° SE visible
01 Aug 6.7 04:05:19 10° NE 04:08:30 16° ENE 04:11:41 10° ESE visible
01 Aug 4.2 05:44:41 10° NNW 05:49:46 53° W 05:54:50 10° SSW visible
02 Aug 4.1 05:11:46 10° N 05:17:02 85° E 05:22:16 10° S visible
03 Aug 5.1 04:39:08 10° N 04:44:10 46° E 04:49:12 10° SSE visible
